Dewpoint
-11 -15 -19 -24 -28 -29 -29 -30 -30 -30 -29 -29 -31 -33 -32 -26 -11 -4 -6 -4 -3 -6 -8 -6 -8 -12 -14 -13 -16 -16 -5 -3 1 5 4 3 0 0 1 1 1 0 -2 -3 -3 -4 -4
-9 -13 -18 -23 -27 -28 -28 -29 -29 -29 -29 -30 -31 -33 -32 -25 -14 -5 -2 -2 -5 -5 -15 -13 -13 -11 -12 -13 -21 -18 -4 -3 2 4 4 2 0 1 2 1 1 -0 -2 -3 -4 -4 -4
-6 -10 -15 -22 -27 -27 -27 -28 -29 -29 -28 -29 -31 -33 -33 -25 -12 -7 -3 -5 -7 -8 -11 -13 -10 -17 -16 -15 -13 -18 -3 -3 2 3 2 3 3 1 2 -1 -1 -2 -3 -5 -5 -7 -6
-6 -8 -12 -19 -25 -27 -26 -27 -27 -28 -28 -29 -32 -33 -34 -26 -12 -6 -7 -8 -7 -3 -5 -13 -21 -15 -15 -21 -12 -13 -4 -2 2 3 3 -1 -1 -1 -1 -0 0 -0 -1 1 -8 -8 -10
-15 -7 -10 -15 -22 -25 -25 -26 -26 -27 -28 -29 -31 -33 -34 -29 -14 -6 -4 -6 -3 -5 -18 -17 -16 -15 -17 -19 -12 -7 -2 -2 -3 2 -1 -3 -3 -2 -2 -2 -2 -1 -2 -3 -6 -14 -14
-20 -9 -7 -12 -19 -24 -25 -25 -26 -26 -26 -27 -31 -33 -34 -31 -19 -12 -12 -10 -7 -11 -15 -20 -21 -16 -17 -16 -9 -5 -2 -3 -6 -4 -4 -8 -11 -7 -5 -4 -6 -7 -8 -11 -13 -12 -16
-5 -20 -6 -7 -13 -21 -25 -25 -25 -26 -25 -27 -30 -34 -34 -31 -25 -15 -11 -13 -7 -12 -14 -13 -15 -17 -16 -17 -12 -7 -5 -6 -7 -10 -11 -13 -14 -12 -12 -11 -11 -10 -12 -14 -15 -14 -15
5 -4 -17 -7 -8 -16 -21 -24 -24 -25 -24 -24 -28 -32 -34 -30 -27 -19 -12 -9 -18 -16 -14 -14 -14 -15 -16 -21 -16 -13 -6 -8 -8 -11 -15 -16 -14 -16 -17 -17 -16 -14 -10 -13 -16 -16 -17
5 5 -3 -16 -8 -12 -19 -24 -23 -23 -23 -23 -26 -31 -34 -31 -26 -25 -14 -13 -14 -19 -13 -13 -15 -13 -14 -14 -13 -13 -14 -13 -13 -14 -14 -16 -17 -20 -20 -19 -17 -17 -11 -16 -14 -15 -16
4 4 5 -2 -14 -9 -16 -22 -22 -22 -22 -22 -24 -31 -34 -33 -25 -29 -16 -16 -13 -18 -11 -11 -13 -13 -13 -14 -13 -15 -18 -15 -14 -14 -15 -14 -14 -21 -20 -18 -14 -15 -18 -15 -14 -13 -10
5 5 5 6 0 -11 -10 -17 -20 -21 -22 -22 -24 -30 -33 -32 -32 -23 -20 -15 -15 -9 -1 -13 -13 -14 -13 -13 -13 -13 -17 -18 -16 -16 -18 -14 -14 -19 -19 -17 -17 -13 -15 -14 -13 -13 -12
8 7 6 5 6 2 -5 -9 -19 -20 -22 -18 -20 -27 -30 -29 -27 -20 -15 -15 -9 -4 4 -10 -14 -14 -15 -14 -13 -13 -14 -15 -17 -18 -17 -16 -17 -18 -19 -17 -17 -14 -13 -13 -12 -11 -6
9 9 8 6 6 5 -6 -9 -15 -20 -18 -10 -13 -21 -26 -27 -17 -15 -16 -6 -7 -5 -12 -10 -12 -14 -16 -15 -13 -14 -15 -18 -17 -13 -16 -15 -17 -16 -16 -16 -15 -13 -14 -7 -9 -5 -6
9 9 9 8 7 6 0 -7 -11 -18 -10 -6 -10 -18 -24 -24 -19 -13 -12 -7 -8 -12 -13 -12 -13 -14 -15 -14 -13 -12 -14 -16 -14 -12 -14 -11 -10 -15 -17 -16 -15 -16 -13 -6 -4 -10 -10
9 9 9 8 7 6 6 -7 -10 -15 -9 -6 -8 -15 -21 -19 -15 -12 -5 -9 -11 -15 -12 -12 -13 -13 -13 -13 -14 -12 -14 -17 -17 -15 -10 -13 -14 -14 -15 -14 -14 -13 -15 -11 -6 -11 -13
9 9 9 9 8 6 7 3 -8 -13 -13 -1 -9 -16 -16 -17 -10 -8 -8 -10 -16 -12 -13 -14 -15 -15 -16 -13 -16 -13 -16 -15 -13 -14 -14 -11 -8 -14 -13 -14 -14 -11 -12 -11 -11 -8 -8
7 7 8 8 8 8 7 7 2 -5 -6 -3 -8 -9 -10 -15 -7 -5 -7 -8 -12 -11 -13 -14 -15 -17 -17 -12 -15 -15 -16 -11 -13 -14 -16 -16 -12 -13 -13 -13 -14 -13 -11 -11 -7 -8 -8
7 7 8 8 8 8 8 7 7 -0 -1 -1 -6 -7 -9 -12 -10 -10 -9 -13 -11 -10 -10 -12 -13 -16 -16 -14 -12 -16 -17 -14 -13 -14 -14 -16 -10 -10 -12 -15 -16 -14 -11 -10 -14 -8 -11
-4 3 5 7 8 8 8 7 7 6 1 1 -10 -11 -10 -10 -8 -9 -11 -11 -9 -9 -10 -11 -12 -13 -13 -13 -8 -16 -14 -12 -13 -13 -13 -12 -13 -12 -11 -10 -14 -12 -12 -9 -10 -10 -9
-12 -10 -7 -1 7 7 8 7 7 6 3 -4 -7 -3 -11 -10 -10 -8 -7 -9 -9 -10 -10 -11 -11 -12 -13 -12 -13 -7 -10 -13 -12 -13 -10 -9 -8 -7 -9 -9 -11 -10 -13 -12 -11 -10 -13
-7 -6 -3 1 3 6 8 7 6 6 1 -4 0 1 -7 -6 -9 -9 -8 -8 -7 -7 -9 -10 -11 -11 -9 -5 -12 -11 -11 -13 -13 -13 -10 -10 -9 -13 -12 -11 -12 -10 -11 -12 -11 -11 -11
-16 -6 5 7 7 7 7 6 6 5 1 -3 1 0 -7 -5 -10 -9 -8 -4 -9 -9 -8 -9 -8 -9 -7 -6 -7 -7 -9 -10 -11 -13 -10 -12 -10 -12 -12 -13 -12 -11 -11 -10 -11 -11 -10
-23 -11 2 5 6 6 6 6 5 5 3 0 1 0 -0 -1 -5 -5 -4 -6 -3 -8 -6 -6 -7 -5 -5 -7 -11 -10 -10 -11 -10 -10 -9 -11 -10 -11 -13 -16 -15 -13 -13 -13 -12 -12 -11
-23 -22 -7 3 4 4 5 5 5 4 3 2 1 0 -1 1 -3 -3 -3 -4 -3 -3 -3 -7 -7 -5 -12 -15 -16 -15 -16 -14 -14 -14 -12 -11 -11 -11 -10 -14 -14 -14 -17 -14 -13 -13 -11
-22 -21 -19 -8 2 5 4 4 4 4 3 2 1 1 -0 -0 -2 -3 -3 -6 -7 -6 -7 -9 -10 -9 -15 -10 -8 -9 -11 -10 -13 -17 -16 -14 -12 -10 -11 -11 -14 -16 -16 -17 -14 -14 -12
-22 -22 -14 -3 -0 4 3 4 3 4 3 1 1 0 -0 -1 -2 -4 -5 -7 -5 -5 -7 -9 -10 -13 -11 -8 -8 -6 -9 -15 -10 -12 -20 -16 -14 -10 -13 -14 -13 -14 -18 -17 -15 -15 -20
-22 -21 -18 1 -3 2 4 3 4 4 3 2 1 -1 -1 -3 -4 -6 -4 -5 -6 -5 -6 -10 -11 -11 -10 -8 -7 -6 -7 -11 -9 -10 -13 -14 -14 -12 -12 -13 -11 -14 -18 -19 -14 -13 -19
-21 -22 -21 -11 3 3 1 2 4 4 1 1 0 -1 -2 -3 -5 -7 -9 -6 -7 -6 -6 -10 -9 -10 -9 -7 -6 -9 -10 -11 -11 -12 -12 -11 -10 -11 -13 -9 -9 -20 -20 -15 -18 -19 -19
-17 -22 -22 -20 -16 2 5 3 4 3 0 -0 -1 -2 -3 -3 -6 -8 -11 -10 -7 -7 -7 -10 -8 -10 -8 -7 -7 -9 -10 -13 -15 -11 -16 -10 -10 -11 -10 -12 -18 -18 -17 -19 -19 -19 -19
Wind_Speed
6 6 4 4 4 4 5 7 9 10 12 13 14 14 13 12 11 13 16 17 19 19 14 4 3 3 6 8 7 5 6 5 5 6 4 5 6 5 6 8 14 18 15 17 17 19 19
6 5 4 3 3 3 5 6 8 10 12 13 13 13 12 10 8 8 10 12 16 15 8 6 3 2 3 4 8 5 7 6 6 5 4 3 4 5 7 7 1 15 20 16 11 11 11
4 4 3 1 2 3 4 6 7 9 10 11 12 12 11 8 6 7 8 11 15 6 5 1 3 10 14 6 9 6 7 7 6 5 6 6 6 2 11 15 19 20 14 11 7 7 5
4 4 4 1 0 1 3 4 6 8 10 11 11 11 10 6 4 6 8 7 1 2 2 2 7 6 6 7 7 5 9 7 6 6 10 11 10 10 6 14 9 6 8 7 5 4 3
3 4 4 3 1 0 2 4 6 7 9 11 12 11 9 5 3 2 1 1 1 0 5 1 3 3 4 6 4 9 7 8 7 7 10 8 6 7 9 8 6 7 4 6 5 2 3
2 4 4 4 3 2 0 2 4 6 8 10 11 11 9 4 2 2 2 2 3 2 3 5 5 2 5 3 5 9 11 8 5 5 4 4 3 5 4 6 2 4 5 2 2 4 3
3 4 4 5 5 4 2 1 3 5 7 8 9 9 8 4 1 1 3 2 3 0 13 8 5 10 6 7 8 5 7 6 3 5 1 2 5 4 5 4 4 4 2 1 3 3 5
5 4 4 5 6 5 5 3 2 4 6 7 8 8 7 3 1 1 2 0 2 3 5 7 6 7 5 4 3 4 6 2 1 3 4 3 5 5 3 4 4 4 4 1 0 2 4
7 6 6 5 5 6 7 4 3 3 4 6 7 7 6 4 2 3 6 5 2 6 2 2 4 4 2 4 5 7 5 4 5 3 1 2 9 3 2 5 4 2 1 0 2 4 11
10 8 7 7 6 6 7 7 6 4 4 4 6 5 5 5 3 3 5 8 4 3 4 5 2 2 2 3 4 5 5 2 2 7 8 5 5 4 3 3 2 4 4 1 4 4 2
13 11 10 8 8 7 6 7 7 7 7 6 6 5 4 4 4 2 4 5 6 0 5 4 2 1 4 1 4 5 6 3 4 6 3 5 7 6 3 2 1 5 1 5 7 8 8
15 14 13 12 10 11 9 9 7 7 6 5 6 5 4 3 2 2 3 9 2 4 6 4 3 3 3 2 2 2 3 6 7 5 5 7 3 1 2 3 2 3 4 4 4 5 5
17 17 16 15 14 12 11 10 9 9 6 5 6 4 4 3 1 3 11 6 4 5 3 4 3 5 3 4 3 3 6 6 4 6 6 4 7 3 3 4 5 5 4 3 4 5 3
21 20 19 17 17 15 13 11 12 9 8 6 6 5 3 2 3 12 12 2 5 3 2 2 2 5 6 8 3 5 5 8 8 4 6 8 6 12 10 7 3 10 3 4 6 3 2
25 22 23 22 19 18 16 13 14 11 9 7 6 4 4 3 6 15 4 4 4 5 4 7 5 6 6 5 2 7 9 6 6 13 7 6 6 5 2 3 3 6 7 3 4 2 5
26 25 25 22 21 21 18 15 16 13 10 9 5 4 6 5 10 14 4 5 2 3 5 3 5 9 6 8 7 8 9 4 6 8 1 2 3 8 6 3 3 4 3 3 4 4 6
25 27 25 27 26 24 19 19 19 16 13 9 7 3 3 8 12 5 4 5 3 5 5 6 4 3 7 6 10 7 3 4 7 7 6 4 2 7 4 11 10 5 5 5 3 3 4
25 23 26 28 30 27 26 22 20 18 18 12 6 2 7 15 4 4 6 3 1 6 4 4 4 6 7 7 7 8 6 0 11 13 7 5 3 6 6 3 3 5 8 11 5 7 4
25 27 29 28 27 27 26 26 23 22 20 12 6 4 12 17 4 6 3 3 4 6 6 6 4 6 2 6 5 11 2 3 11 9 7 7 6 3 4 2 4 6 10 7 0 2 11
18 22 27 29 29 28 29 31 27 21 17 18 7 2 3 13 7 4 4 5 5 7 4 6 2 6 4 5 4 3 6 4 8 8 2 7 3 7 6 2 4 6 14 18 13 6 10
10 15 18 20 25 25 28 29 26 22 21 20 7 4 7 4 9 14 5 3 6 5 7 9 5 12 7 7 3 6 6 5 7 8 5 4 5 5 8 4 4 7 9 17 21 24 11
7 7 17 13 19 21 25 26 24 25 25 26 8 6 6 3 2 9 10 6 14 9 8 7 9 8 11 6 7 4 9 7 6 12 7 3 2 1 4 4 7 10 12 16 20 21 20
6 5 11 15 14 22 20 22 21 24 25 16 17 12 6 6 4 5 6 8 7 9 10 3 7 5 10 12 3 3 6 4 3 9 11 7 6 4 5 3 5 9 19 23 17 12 18
6 5 8 13 18 17 21 23 22 19 23 25 13 12 7 3 8 8 3 6 10 13 5 3 6 7 5 9 15 12 12 10 7 6 4 6 6 3 2 1 9 2 2 4 14 19 17
8 7 9 12 17 28 25 26 26 22 19 24 22 15 8 2 10 8 11 7 7 6 3 5 2 4 20 8 3 2 3 2 3 3 2 2 4 3 4 9 14 11 4 4 5 3 7
10 10 10 12 18 23 26 26 29 27 22 22 24 25 10 1 7 1 9 15 6 6 4 4 4 16 10 5 3 6 7 4 5 4 2 3 2 2 3 6 8 4 3 3 1 5 13
10 11 11 6 11 19 28 27 29 29 26 21 22 26 18 5 5 9 5 6 8 6 2 5 8 7 5 4 5 5 5 2 7 9 8 5 3 10 10 8 8 4 8 7 4 3 10
12 12 13 11 13 18 25 29 33 36 30 27 26 24 22 8 6 11 10 6 7 7 4 10 6 5 5 5 5 5 5 6 3 4 7 9 10 6 6 6 11 4 5 5 3 3 7
15 15 16 17 17 18 21 29 32 39 33 33 27 24 25 13 4 11 11 11 12 12 10 21 1 5 10 5 6 4 3 2 4 3 3 4 5 4 9 5 4 1 3 2 6 10 10
Wind_Direction
33 33 44 68 68 56 42 31 24 19 16 14 14 13 17 23 40 52 61 84 113 130 134 184 128 107 88 78 25 35 53 79 95 77 127 157 159 160 141 133 100 109 106 87 96 85 86
18 25 36 75 77 49 34 30 23 18 14 14 13 12 18 25 43 63 75 89 120 128 59 98 79 128 95 87 31 59 61 87 110 87 107 134 148 116 119 123 307 112 116 111 97 95 120
11 15 18 58 84 51 31 21 20 16 13 13 14 14 14 25 51 80 96 114 121 105 54 11 5 81 82 71 29 80 80 86 113 97 106 90 120 198 125 111 118 129 118 112 95 102 109
353 355 356 5 83 44 26 17 12 12 9 8 13 13 12 24 58 104 112 128 156 329 347 37 63 70 78 50 53 110 97 81 102 116 130 97 95 98 96 125 149 168 171 186 104 162 130
327 346 343 326 260 260 13 4 5 8 7 7 5 10 12 17 70 125 164 248 236 83 31 24 40 130 86 51 92 114 120 102 77 120 112 97 99 89 136 163 160 199 222 213 143 89 173
304 328 334 323 285 252 277 358 360 1 3 3 4 4 8 19 69 119 58 52 61 329 320 56 66 82 50 22 94 116 123 105 93 97 89 56 90 144 155 216 261 170 197 191 186 125 242
277 299 322 329 315 291 280 319 349 354 1 1 2 1 5 13 56 146 121 43 317 325 59 69 39 86 79 71 50 112 126 84 90 54 96 35 224 113 75 61 68 66 94 149 100 50 307
263 279 295 316 318 300 287 292 324 348 354 1 358 2 6 11 333 203 184 1 323 162 99 60 71 74 67 97 113 67 132 88 348 107 158 176 129 105 89 71 83 87 86 161 124 343 316
261 279 286 293 306 302 281 272 285 317 340 351 359 3 3 351 317 261 238 228 286 140 265 94 74 64 24 54 55 8 56 76 71 71 352 241 114 125 107 99 102 91 211 175 297 325 253
250 262 274 285 292 298 286 281 282 289 310 344 350 10 1 345 315 296 261 232 214 189 262 137 158 27 8 113 61 42 74 74 91 110 91 91 135 141 126 102 310 203 112 178 262 267 283
246 253 261 265 276 280 282 277 280 297 315 333 347 357 2 348 301 289 290 186 174 312 294 79 90 108 53 65 125 26 46 50 135 127 224 93 162 170 193 77 212 60 54 273 271 262 292
251 252 254 256 256 268 268 262 267 278 293 316 336 337 350 338 329 300 160 146 145 241 247 144 131 152 160 73 87 92 79 81 120 93 67 111 61 226 10 135 206 11 237 221 232 246 247
247 259 261 255 257 257 261 261 255 259 271 300 317 334 341 340 302 149 146 124 261 240 93 157 180 182 208 162 137 199 183 168 180 160 182 165 185 132 191 191 193 232 227 228 218 205 275
252 256 257 255 250 251 251 255 254 249 262 290 302 304 299 302 161 153 151 227 240 2 202 71 154 169 203 164 176 178 191 211 221 227 166 193 216 187 177 233 283 203 247 286 277 267 27
247 247 248 247 248 246 249 242 249 245 256 270 281 267 261 227 180 165 168 198 262 22 81 160 155 216 195 202 275 206 219 237 186 197 215 204 163 118 197 172 243 157 211 58 294 219 270
241 244 245 247 249 243 247 243 250 243 243 258 249 261 252 226 175 170 230 240 236 120 126 172 255 200 229 184 200 202 196 171 180 201 250 179 151 194 145 179 211 260 99 175 204 258 254
239 242 244 252 242 244 244 246 241 239 241 240 227 236 228 177 164 184 230 236 198 172 167 197 271 255 245 188 213 198 260 144 157 165 197 169 266 146 150 207 190 173 204 220 295 255 258
242 238 240 246 246 246 244 243 248 229 232 216 209 208 186 165 167 221 245 271 143 161 173 236 283 258 232 201 207 225 240 227 166 157 174 174 231 200 210 62 341 306 227 194 225 189 225
242 243 242 243 245 252 253 248 245 245 236 202 198 179 182 175 209 214 197 253 253 184 191 181 223 218 58 215 231 216 217 25 174 183 164 177 198 207 200 223 203 225 213 228 56 288 226
246 245 245 236 233 244 250 246 245 243 218 189 179 138 156 202 257 288 219 248 228 216 222 196 147 134 150 219 238 223 199 154 191 208 107 168 230 249 266 40 112 204 209 205 206 222 247
265 253 240 231 229 234 252 248 249 240 207 194 206 214 184 190 231 226 218 303 206 221 226 200 205 209 179 196 218 243 177 155 194 200 164 200 239 247 273 228 255 246 218 207 214 229 234
280 268 214 228 251 248 257 253 249 242 212 203 183 183 185 267 173 196 196 224 231 222 183 217 228 201 191 210 209 222 178 187 199 189 173 178 219 63 267 223 240 256 248 244 230 240 254
321 277 213 227 262 258 259 259 263 254 230 205 214 214 186 166 190 162 212 217 218 209 214 287 200 187 215 233 172 108 138 80 161 175 178 167 185 178 255 33 316 267 227 224 220 220 229
298 295 239 222 247 248 259 262 267 266 241 222 221 205 179 206 200 210 218 236 226 214 246 159 180 173 145 138 105 88 82 84 90 49 145 170 177 179 318 21 260 328 111 237 234 241 225
301 281 283 248 230 243 251 252 258 260 258 235 235 221 198 209 205 234 225 205 130 124 123 152 107 167 148 128 128 160 180 199 135 59 88 360 165 193 245 226 291 297 191 178 179 271 296
300 298 306 256 224 243 244 248 252 256 256 235 237 241 224 197 217 128 186 192 201 196 151 128 121 149 157 186 167 216 217 211 188 155 110 101 37 235 153 248 268 59 122 157 160 250 7
295 298 305 285 246 231 241 249 255 250 252 243 234 232 220 220 214 173 187 195 176 165 110 131 143 182 177 182 194 215 233 62 193 189 172 162 187 221 229 255 278 89 130 145 208 328 2
291 289 282 271 254 251 244 243 249 244 227 233 231 228 216 208 226 207 203 168 157 169 166 131 128 196 168 210 212 213 245 203 208 139 180 167 172 195 199 234 263 122 135 217 22 24 14
285 287 281 274 268 252 254 234 243 244 218 222 219 225 224 220 212 214 218 220 212 195 167 172 255 154 180 198 211 240 216 169 245 229 198 207 215 196 205 208 92 115 43 58 334 305 318
Height
1531 1531 1530 1529 1529 1528 1528 1527 1526 1524 1522 1521 1519 1516 1514 1513 1511 1510 1508 1506 1505 1507 1509 1508 1508 1508 1508 1512 1515 1513 1512 1511 1511 1512 1515 1516 1516 1516 1515 1518 1523 1529 1537 1540 1543 1544 1546
1532 1531 1530 1529 1529 1529 1529 1528 1527 1525 1524 1522 1520 1518 1516 1514 1513 1512 1511 1511 1511 1513 1512 1510 1510 1509 1510 1514 1515 1514 1513 1513 1513 1515 1516 1517 1518 1518 1519 1520 1520 1530 1537 1541 1545 1546 1549
1532 1531 1530 1529 1529 1529 1529 1529 1527 1526 1524 1523 1521 1519 1517 1516 1515 1514 1513 1514 1514 1515 1514 1513 1512 1512 1511 1517 1516 1515 1515 1515 1515 1516 1517 1518 1519 1520 1522 1527 1530 1533 1536 1540 1545 1547 1551
1532 1532 1531 1530 1529 1529 1528 1528 1527 1526 1525 1523 1521 1519 1518 1517 1516 1516 1516 1516 1516 1515 1514 1513 1513 1513 1516 1517 1516 1516 1517 1518 1517 1517 1517 1518 1521 1521 1523 1528 1531 1529 1531 1530 1546 1547 1552
1532 1531 1530 1530 1529 1529 1528 1528 1527 1527 1525 1524 1522 1520 1518 1518 1517 1517 1517 1517 1516 1516 1515 1513 1515 1515 1519 1518 1518 1518 1518 1519 1520 1520 1520 1520 1521 1525 1528 1524 1526 1528 1513 1524 1544 1548 1547
1531 1531 1530 1529 1529 1528 1528 1527 1527 1527 1526 1524 1522 1521 1519 1518 1518 1518 1517 1517 1516 1516 1516 1516 1516 1519 1522 1522 1519 1519 1520 1521 1522 1523 1524 1523 1524 1522 1523 1521 1510 1512 1520 1531 1529 1546 1546
1530 1530 1529 1529 1528 1528 1528 1527 1527 1526 1525 1524 1522 1520 1519 1519 1518 1518 1519 1519 1522 1520 1516 1521 1523 1523 1524 1524 1524 1522 1522 1523 1523 1524 1521 1524 1518 1519 1533 1536 1536 1534 1531 1531 1540 1547 1548
1529 1529 1529 1528 1528 1527 1527 1527 1526 1526 1525 1524 1523 1520 1519 1518 1519 1519 1519 1520 1520 1522 1523 1522 1521 1522 1522 1522 1523 1523 1524 1526 1524 1523 1525 1524 1527 1540 1541 1539 1536 1536 1538 1537 1543 1548 1550
1527 1528 1527 1527 1526 1526 1526 1525 1525 1525 1524 1524 1523 1521 1519 1518 1519 1519 1519 1519 1519 1520 1520 1524 1522 1523 1525 1526 1525 1525 1525 1526 1526 1527 1525 1519 1536 1543 1540 1540 1538 1540 1541 1543 1549 1549 1549
1524 1525 1525 1525 1525 1525 1525 1525 1524 1524 1523 1522 1522 1521 1520 1519 1520 1518 1519 1518 1519 1520 1513 1522 1523 1524 1526 1526 1528 1526 1526 1530 1529 1529 1531 1536 1544 1543 1542 1545 1546 1538 1547 1552 1554 1552 1530
1521 1522 1522 1522 1523 1523 1523 1524 1524 1524 1523 1522 1522 1521 1520 1519 1520 1519 1519 1519 1520 1522 1512 1526 1526 1525 1526 1528 1531 1530 1529 1529 1530 1533 1536 1537 1544 1545 1543 1546 1550 1548 1554 1554 1552 1548 1544
1518 1519 1520 1520 1519 1521 1520 1521 1521 1523 1522 1521 1521 1521 1520 1519 1519 1519 1518 1521 1523 1518 1506 1521 1524 1525 1526 1529 1530 1532 1532 1532 1535 1536 1536 1541 1546 1546 1544 1551 1554 1555 1553 1551 1551 1545 1546
1515 1516 1517 1518 1518 1518 1518 1518 1518 1520 1520 1520 1519 1519 1519 1519 1519 1518 1519 1522 1520 1509 1517 1518 1519 1521 1521 1526 1530 1530 1531 1531 1526 1533 1532 1543 1544 1549 1550 1549 1553 1554 1549 1527 1528 1538 1507
1510 1512 1513 1514 1515 1516 1516 1515 1516 1517 1518 1519 1518 1518 1517 1518 1518 1518 1521 1524 1519 1502 1505 1521 1521 1522 1518 1524 1526 1529 1528 1523 1531 1531 1519 1529 1535 1544 1547 1545 1541 1544 1543 1527 1511 1490 1498
1505 1507 1509 1509 1512 1513 1513 1513 1514 1514 1515 1516 1517 1517 1517 1516 1517 1518 1522 1518 1503 1504 1514 1519 1524 1520 1519 1525 1526 1528 1522 1514 1516 1526 1523 1517 1525 1547 1548 1550 1550 1543 1547 1551 1548 1541 1531
1499 1502 1503 1504 1507 1509 1510 1510 1511 1512 1512 1514 1515 1516 1516 1517 1516 1519 1519 1510 1506 1511 1515 1519 1508 1509 1502 1517 1524 1523 1513 1514 1523 1528 1530 1524 1531 1544 1551 1552 1552 1549 1551 1547 1544 1537 1515
1493 1495 1497 1499 1501 1503 1505 1507 1507 1509 1510 1513 1514 1515 1514 1515 1518 1522 1513 1505 1509 1511 1514 1516 1509 1509 1508 1513 1516 1515 1503 1520 1522 1530 1532 1529 1531 1544 1550 1544 1534 1550 1548 1551 1551 1538 1513
1487 1488 1490 1493 1496 1498 1500 1502 1503 1505 1506 1510 1513 1514 1512 1515 1521 1518 1511 1507 1510 1510 1514 1517 1518 1513 1510 1512 1515 1513 1507 1514 1523 1527 1529 1530 1528 1529 1532 1545 1546 1542 1534 1540 1528 1526 1532
1480 1482 1484 1487 1490 1492 1495 1497 1498 1499 1502 1507 1509 1511 1511 1513 1513 1509 1510 1511 1512 1511 1510 1512 1513 1513 1518 1517 1516 1507 1514 1524 1524 1526 1525 1531 1526 1522 1530 1546 1546 1542 1538 1539 1548 1543 1522
1473 1474 1478 1480 1484 1487 1490 1492 1493 1494 1497 1504 1506 1509 1512 1513 1509 1508 1505 1506 1507 1509 1507 1508 1509 1513 1518 1521 1520 1517 1518 1525 1526 1526 1529 1530 1527 1515 1490 1517 1521 1535 1527 1533 1537 1526 1504
1469 1469 1471 1474 1478 1482 1485 1486 1489 1491 1493 1502 1501 1500 1500 1508 1504 1505 1505 1501 1504 1507 1510 1509 1509 1507 1510 1516 1520 1521 1517 1526 1527 1527 1530 1531 1527 1520 1519 1527 1529 1523 1522 1525 1528 1512 1504
1467 1464 1467 1470 1475 1477 1480 1481 1484 1486 1488 1497 1494 1497 1499 1499 1497 1500 1503 1500 1496 1499 1506 1504 1504 1502 1506 1506 1508 1512 1517 1522 1519 1526 1530 1533 1521 1531 1525 1526 1533 1530 1526 1520 1518 1515 1506
1464 1463 1464 1467 1469 1472 1477 1478 1480 1483 1485 1489 1487 1490 1492 1495 1498 1499 1493 1488 1491 1494 1499 1500 1499 1505 1507 1506 1509 1514 1516 1516 1516 1519 1523 1530 1528 1531 1507 1534 1535 1522 1512 1501 1496 1497 1498
1463 1462 1463 1465 1467 1469 1472 1475 1476 1479 1481 1483 1483 1486 1490 1486 1494 1489 1487 1490 1489 1492 1494 1501 1500 1501 1508 1509 1511 1515 1518 1520 1520 1522 1521 1522 1526 1526 1513 1535 1504 1477 1490 1490 1487 1486 1489
1460 1460 1459 1460 1462 1465 1467 1470 1474 1475 1477 1480 1480 1484 1486 1483 1485 1485 1486 1489 1491 1493 1498 1499 1502 1503 1506 1509 1512 1514 1515 1519 1522 1525 1525 1524 1520 1522 1515 1503 1473 1475 1489 1491 1489 1483 1488
1459 1455 1454 1455 1458 1460 1463 1465 1469 1471 1473 1475 1476 1480 1482 1484 1479 1480 1482 1485 1487 1490 1498 1499 1500 1504 1507 1507 1507 1505 1491 1487 1511 1522 1527 1526 1526 1519 1529 1512 1479 1481 1489 1491 1494 1481 1492
1454 1453 1452 1452 1452 1454 1458 1461 1464 1466 1469 1470 1470 1476 1478 1480 1477 1478 1480 1482 1484 1486 1490 1498 1500 1506 1506 1503 1499 1495 1487 1492 1492 1499 1518 1521 1523 1518 1508 1500 1479 1486 1490 1493 1485 1479 1493
1450 1449 1448 1447 1448 1450 1451 1454 1457 1459 1461 1463 1466 1470 1474 1475 1474 1475 1476 1477 1479 1481 1486 1495 1501 1502 1504 1501 1493 1484 1480 1485 1485 1487 1496 1496 1506 1508 1505 1503 1490 1490 1493 1488 1494 1493 1492
1443 1443 1443 1442 1442 1442 1445 1446 1451 1453 1456 1458 1462 1465 1468 1471 1472 1472 1474 1476 1477 1477 1481 1485 1486 1486 1489 1490 1486 1479 1482 1490 1476 1471 1491 1488 1480 1481 1482 1475 1488 1491 1493 1493 1493 1493 1491